Weather History for Keahole Point, HI

Change the Weather History Date:

Thursday, February 13, 2014

  Actual Average Record
Temperature  
Mean Temperature 78 °F -  
Max Temperature 84 °F 79 °F 86 °F (1983)
Min Temperature 71 °F 66 °F 64 °F (1990)
Cooling Degree Days 12    
Growing Degree Days 28 (Base 50)    
Moisture  
Dew Point 64 °F    
Average Humidity 63    
Maximum Humidity 79    
Minimum Humidity 46    
Precipitation  
Precipitation 0.00 in - - ()
Sea Level Pressure  
Sea Level Pressure 29.93 in    
Wind  
Wind Speed 7 mph (ENE)    
Max Wind Speed 15 mph    
Max Gust Speed -    
Visibility 10 miles    
Events      
Averages and records for this station are not official NWS values.
T = Trace of Precipitation, MM = Missing Value Source: NWS Daily Summary

Daily Weather History Graph

Daily Weather History Graph

Search for Another Location

Airport:

Trip Planner

Search our weather history database for the weather conditions in past years. The results will help you decide how hot, cold, wet, or windy it might be!

Date:

Astronomy

Feb. 13, 2014 Rise Set
Actual Time 6:54 AM HST 6:22 PM HST
Civil Twilight 6:31 AM HST 6:45 PM HST
Nautical Twilight 6:05 AM HST 7:11 PM HST
Astronomical Twilight 5:39 AM HST 7:37 PM HST
Moon 5:39 PM HST (2/13) 5:53 AM HST (2/13)
Length of Visible Light 12h 13m
Length of Day
11h 28m
Waxing Gibbous, 99% of the Moon is Illuminated
Feb 13
Waxing Gibbous
Feb 14
Full
Feb 22
Last Quarter
Feb 28
New
Mar 8
First Quarter

Hourly Weather History & Observations

Time (HST) Temp. Heat Index Dew Point Humidity Pressure Visibility Wind Dir Wind Speed Gust Speed Precip Events Conditions
12:53 AM 73.9 °F - 61.0 °F 64% 29.92 in 10.0 mi SE 8.1 mph - N/A   Partly Cloudy
1:53 AM 73.0 °F - 61.0 °F 66% 29.91 in 10.0 mi SE 6.9 mph - N/A   Clear
2:53 AM 73.0 °F - 62.1 °F 68% 29.90 in 10.0 mi ESE 5.8 mph - N/A   Clear
3:53 AM 72.0 °F - 61.0 °F 68% 29.90 in 10.0 mi Calm Calm - N/A   Clear
4:53 AM 72.0 °F - 63.0 °F 73% 29.90 in 10.0 mi East 5.8 mph - N/A   Partly Cloudy
5:53 AM 71.1 °F - 62.1 °F 73% 29.92 in 10.0 mi ENE 4.6 mph - N/A   Mostly Cloudy
6:53 AM 72.0 °F - 62.1 °F 71% 29.95 in 10.0 mi ENE 3.5 mph - N/A   Overcast
7:53 AM 73.0 °F - 61.0 °F 66% 29.96 in 10.0 mi ENE 5.8 mph - N/A   Clear
8:53 AM 81.0 °F 81.7 °F 61.0 °F 50% 29.97 in 10.0 mi Variable 3.5 mph - N/A   Clear
9:53 AM 82.0 °F 82.7 °F 61.0 °F 49% 29.97 in 10.0 mi NW 5.8 mph - N/A   Clear
10:53 AM 82.9 °F 83.7 °F 62.1 °F 49% 29.94 in 10.0 mi WNW 9.2 mph - N/A   Clear
11:53 AM 82.9 °F 83.7 °F 62.1 °F 49% 29.92 in 10.0 mi NW 15.0 mph - N/A   Clear
12:53 PM 82.9 °F 83.7 °F 62.1 °F 49% 29.91 in 10.0 mi NNW 12.7 mph - N/A   Clear
1:53 PM 84.9 °F 85.4 °F 62.1 °F 46% 29.89 in 10.0 mi NNW 10.4 mph - N/A   Scattered Clouds
2:53 PM 82.9 °F 84.4 °F 64.0 °F 53% 29.87 in 10.0 mi NNW 6.9 mph - N/A   Scattered Clouds
3:53 PM 81.0 °F 82.7 °F 64.9 °F 58% 29.87 in 10.0 mi West 6.9 mph - N/A   Clear
4:53 PM 81.0 °F 82.7 °F 64.9 °F 58% 29.88 in 10.0 mi NNW 8.1 mph - N/A   Clear
5:53 PM 80.1 °F 82.1 °F 66.0 °F 62% 29.90 in 10.0 mi Calm Calm - N/A   Scattered Clouds
6:53 PM 77.0 °F - 69.1 °F 76% 29.93 in 10.0 mi SSE 13.8 mph - N/A   Mostly Cloudy
7:53 PM 75.9 °F - 68.0 °F 76% 29.95 in 10.0 mi South 6.9 mph - N/A   Partly Cloudy
8:53 PM 75.9 °F - 68.0 °F 76% 29.97 in 10.0 mi SSE 9.2 mph - N/A   Overcast
9:53 PM 75.0 °F - 68.0 °F 79% 29.95 in 10.0 mi ESE 5.8 mph - N/A   Clear
10:53 PM 75.0 °F - 66.0 °F 73% 29.96 in 10.0 mi ESE 4.6 mph - N/A   Clear
11:53 PM 75.0 °F - 64.9 °F 71% 29.97 in 10.0 mi ESE 3.5 mph - N/A   Clear